{"data":{"norad_id":56041,"epoch":"2026-05-25T04:32:47.186592Z","epoch_age_seconds":58369,"freshness":"FRESH","line1":"1 56041U 23042BH  26145.18943503 -.00000478  00000+0 -78465-5 0  9993","line2":"2 56041  43.0010 321.9550 0001885 245.6177 114.4478 15.27585656174860","mean_motion":15.27585656,"eccentricity":0.0001885,"inclination_deg":43.001,"raan_deg":321.955,"arg_perigee_deg":245.6177,"mean_anomaly_deg":114.4478,"bstar":-7.8465e-6,"rev_number":17486,"period_min":94.266399683973,"perigee_km":481.73882960651,"apogee_km":484.32549037983,"semimajor_km":6861.1691599932,"source":"CELESTRAK","updated_at":"2026-05-25T13:38:17.952832Z"}}